| time (UTC) | temp F | wind direction | speed MPH | gust MPH | rain 1hr in | rain 24hr in | rain mn in | humidity % | barometer mb |
| 20260510010858 | 64 | 356 | 4.0 | 5.0 | 0.00 | 0.00 | 0.00 | 37 | 1011.5 |
| 20260510010350 | 65 | 344 | 3.0 | 6.0 | 0.00 | 0.00 | 0.00 | 36 | 1011.4 |
| 20260510005846 | 65 | 58 | 4.0 | 7.0 | 0.00 | 0.00 | 0.00 | 37 | 1011.5 |
| 20260510005343 | 66 | 331 | 5.0 | 9.0 | 0.00 | 0.00 | 0.00 | 36 | 1011.3 |
| 20260510004840 | 65 | 1 | 10.0 | 13.0 | 0.00 | 0.00 | 0.00 | 36 | 1011.2 |
| 20260510004338 | 66 | 1 | 5.0 | 9.0 | 0.00 | 0.00 | 0.00 | 37 | 1011.3 |
| 20260510003836 | 67 | 7 | 9.0 | 15.0 | 0.00 | 0.00 | 0.00 | 35 | 1011.2 |
| 20260510003332 | 67 | 331 | 10.0 | 16.0 | 0.00 | 0.00 | 0.00 | 35 | 1010.9 |
| 20260510002831 | 67 | 8 | 5.0 | 11.0 | 0.00 | 0.00 | 0.00 | 37 | 1010.8 |
| 20260510002328 | 68 | 357 | 4.0 | 8.0 | 0.00 | 0.00 | 0.00 | 37 | 1010.5 |
| 20260510001825 | 68 | 348 | 9.0 | 10.0 | 0.00 | 0.00 | 0.00 | 35 | 1010.6 |
| 20260510001323 | 68 | 8 | 9.0 | 13.0 | 0.00 | 0.00 | 0.00 | 36 | 1010.6 |
| 20260510000819 | 68 | 10 | 5.0 | 8.0 | 0.00 | 0.00 | 0.00 | 36 | 1010.5 |
| 20260510000318 | 68 | 3 | 7.0 | 8.0 | 0.00 | 0.00 | 0.00 | 36 | 1010.5 |
| 20260509235813 | 68 | 25 | 5.0 | 10.0 | 0.00 | 0.00 | 0.00 | 36 | 1010.5 |
| 20260509235310 | 69 | 26 | 8.0 | 15.0 | 0.00 | 0.00 | 0.00 | 36 | 1010.2 |
| 20260509234805 | 69 | 341 | 5.0 | 9.0 | 0.00 | 0.00 | 0.00 | 35 | 1010.4 |
| 20260509234302 | 69 | 343 | 7.0 | 10.0 | 0.00 | 0.00 | 0.00 | 36 | 1010.4 |
| 20260509233801 | 69 | 37 | 8.0 | 11.0 | 0.00 | 0.00 | 0.00 | 35 | 1010.2 |
| 20260509233258 | 69 | 15 | 5.0 | 8.0 | 0.00 | 0.00 | 0.00 | 39 | 1010.4 |
| 20260509232754 | 69 | 346 | 6.0 | 11.0 | 0.00 | 0.00 | 0.00 | 38 | 1010.2 |
| 20260509232251 | 69 | 349 | 7.0 | 11.0 | 0.00 | 0.00 | 0.00 | 40 | 1010.2 |
| 20260509231747 | 69 | 353 | 5.0 | 7.0 | 0.00 | 0.00 | 0.00 | 41 | 1010.0 |
| 20260509231244 | 69 | 43 | 3.0 | 10.0 | 0.00 | 0.00 | 0.00 | 41 | 1010.2 |
| 20260509230742 | 69 | 36 | 3.0 | 8.0 | 0.00 | 0.00 | 0.00 | 43 | 1009.9 |
| 20260509230239 | 69 | 36 | 8.0 | 11.0 | 0.00 | 0.00 | 0.00 | 43 | 1009.9 |
| 20260509225734 | 69 | 354 | 9.0 | 10.0 | 0.00 | 0.00 | 0.00 | 44 | 1009.8 |
| 20260509225230 | 69 | 339 | 5.0 | 10.0 | 0.00 | 0.00 | 0.00 | 45 | 1009.7 |
| 20260509224726 | 69 | 30 | 4.0 | 11.0 | 0.00 | 0.00 | 0.00 | 44 | 1009.6 |
| 20260509224224 | 69 | 278 | 7.0 | 9.0 | 0.00 | 0.00 | 0.00 | 42 | 1009.2 |
| 20260509223720 | 69 | 23 | 6.0 | 11.0 | 0.00 | 0.00 | 0.00 | 45 | 1009.5 |
| 20260509223217 | 69 | 343 | 4.0 | 10.0 | 0.00 | 0.00 | 0.00 | 46 | 1009.5 |
| 20260509222714 | 69 | 328 | 5.0 | 8.0 | 0.00 | 0.00 | 0.00 | 48 | 1009.3 |
| 20260509222209 | 69 | 322 | 7.0 | 8.0 | 0.00 | 0.00 | 0.00 | 47 | 1009.4 |
| 20260509221705 | 68 | 9 | 2.0 | 8.0 | 0.00 | 0.00 | 0.00 | 49 | 1009.2 |
| 20260509221202 | 69 | 36 | 6.0 | 9.0 | 0.00 | 0.00 | 0.00 | 48 | 1009.1 |
| 20260509220657 | 69 | 358 | 5.0 | 10.0 | 0.00 | 0.00 | 0.00 | 48 | 1009.3 |
| 20260509220154 | 70 | 344 | 16.0 | 20.0 | 0.00 | 0.00 | 0.00 | 46 | 1009.3 |
| 20260509215650 | 70 | 327 | 6.0 | 10.0 | 0.00 | 0.00 | 0.00 | 47 | 1009.4 |
| 20260509215147 | 70 | 335 | 9.0 | 13.0 | 0.00 | 0.00 | 0.00 | 48 | 1009.3 |
| 20260509214644 | 70 | 43 | 8.0 | 15.0 | 0.00 | 0.00 | 0.00 | 47 | 1009.2 |
| 20260509214140 | 70 | 41 | 6.0 | 10.0 | 0.00 | 0.00 | 0.00 | 47 | 1009.0 |
| 20260509213637 | 70 | 19 | 6.0 | 13.0 | 0.00 | 0.00 | 0.00 | 48 | 1009.0 |
| 20260509213133 | 69 | 351 | 8.0 | 16.0 | 0.00 | 0.00 | 0.00 | 48 | 1009.1 |
| 20260509212631 | 69 | 335 | 10.0 | 15.0 | 0.00 | 0.00 | 0.00 | 47 | 1009.2 |
| 20260509212127 | 69 | 59 | 6.0 | 17.0 | 0.00 | 0.00 | 0.00 | 47 | 1009.2 |
| 20260509211624 | 70 | 25 | 11.0 | 16.0 | 0.00 | 0.00 | 0.00 | 47 | 1009.0 |
| 20260509211120 | 71 | 22 | 7.0 | 9.0 | 0.00 | 0.00 | 0.00 | 47 | 1009.0 |
| 20260509210617 | 70 | 32 | 5.0 | 15.0 | 0.00 | 0.00 | 0.00 | 46 | 1009.0 |
| 20260509210114 | 70 | 9 | 10.0 | 18.0 | 0.00 | 0.00 | 0.00 | 46 | 1009.0 |
| 20260509205608 | 70 | 332 | 8.0 | 17.0 | 0.00 | 0.00 | 0.00 | 45 | 1008.8 |
| 20260509205103 | 71 | 335 | 15.0 | 17.0 | 0.00 | 0.00 | 0.00 | 44 | 1009.0 |
| 20260509204600 | 70 | 24 | 5.0 | 14.0 | 0.00 | 0.00 | 0.00 | 44 | 1008.9 |
| 20260509204057 | 71 | 49 | 9.0 | 10.0 | 0.00 | 0.00 | 0.00 | 44 | 1009.0 |
| 20260509203552 | 70 | 4 | 9.0 | 14.0 | 0.00 | 0.00 | 0.00 | 43 | 1008.9 |
| 20260509203051 | 71 | 356 | 6.0 | 9.0 | 0.00 | 0.00 | 0.00 | 40 | 1008.9 |
| 20260509202545 | 71 | 323 | 3.0 | 8.0 | 0.00 | 0.00 | 0.00 | 40 | 1009.0 |
| 20260509202041 | 72 | 319 | 7.0 | 10.0 | 0.00 | 0.00 | 0.00 | 38 | 1008.8 |
| 20260509201536 | 73 | 296 | 7.0 | 9.0 | 0.00 | 0.00 | 0.00 | 36 | 1008.8 |
| 20260509201034 | 72 | 358 | 9.0 | 11.0 | 0.00 | 0.00 | 0.00 | 35 | 1008.7 |
| 20260509200533 | 73 | 283 | 3.0 | 13.0 | 0.00 | 0.00 | 0.00 | 35 | 1008.9 |
| 20260509200030 | 72 | 20 | 11.0 | 14.0 | 0.00 | 0.00 | 0.00 | 34 | 1008.8 |
| 20260509195525 | 72 | 313 | 7.0 | 10.0 | 0.00 | 0.00 | 0.00 | 34 | 1008.8 |
| 20260509195020 | 72 | 354 | 10.0 | 11.0 | 0.00 | 0.00 | 0.00 | 34 | 1008.6 |
| 20260509194515 | 72 | 315 | 5.0 | 13.0 | 0.00 | 0.00 | 0.00 | 35 | 1008.7 |
| 20260509194013 | 71 | 287 | 3.0 | 8.0 | 0.00 | 0.00 | 0.00 | 33 | 1008.6 |
| 20260509193513 | 71 | 14 | 8.0 | 11.0 | 0.00 | 0.00 | 0.00 | 33 | 1008.6 |
| 20260509193010 | 71 | 292 | 5.0 | 10.0 | 0.00 | 0.00 | 0.00 | 34 | 1008.7 |
| 20260509192506 | 72 | 38 | 4.0 | 11.0 | 0.00 | 0.00 | 0.00 | 34 | 1008.6 |
| 20260509192001 | 72 | 313 | 9.0 | 14.0 | 0.00 | 0.00 | 0.00 | 33 | 1008.5 |
| 20260509191456 | 72 | 319 | 4.0 | 6.0 | 0.00 | 0.00 | 0.00 | 34 | 1008.2 |
| 20260509190952 | 72 | 351 | 5.0 | 8.0 | 0.00 | 0.00 | 0.00 | 33 | 1008.4 |
| 20260509190449 | 72 | 324 | 8.0 | 10.0 | 0.00 | 0.00 | 0.00 | 31 | 1008.1 |
| 20260509185947 | 72 | 13 | 3.0 | 8.0 | 0.00 | 0.00 | 0.00 | 32 | 1008.3 |
| 20260509185444 | 73 | 12 | 1.0 | 11.0 | 0.00 | 0.00 | 0.00 | 33 | 1008.2 |
| 20260509184941 | 72 | 299 | 4.0 | 10.0 | 0.00 | 0.00 | 0.00 | 31 | 1008.1 |
| 20260509184439 | 73 | 24 | 4.0 | 7.0 | 0.00 | 0.00 | 0.00 | 31 | 1008.2 |
| 20260509183935 | 74 | 295 | 6.0 | 7.0 | 0.00 | 0.00 | 0.00 | 30 | 1008.2 |
| 20260509183434 | 74 | 339 | 6.0 | 13.0 | 0.00 | 0.00 | 0.00 | 30 | 1008.2 |
| 20260509182931 | 74 | 344 | 7.0 | 13.0 | 0.00 | 0.00 | 0.00 | 30 | 1008.0 |
| 20260509182427 | 75 | 290 | 5.0 | 9.0 | 0.00 | 0.00 | 0.00 | 32 | 1008.0 |
| 20260509181925 | 74 | 281 | 4.0 | 7.0 | 0.00 | 0.00 | 0.00 | 30 | 1008.1 |
| 20260509181423 | 73 | 338 | 6.0 | 8.0 | 0.00 | 0.00 | 0.00 | 31 | 1007.8 |
| 20260509180920 | 73 | 259 | 4.0 | 10.0 | 0.00 | 0.00 | 0.00 | 30 | 1007.9 |
| 20260509180415 | 73 | 35 | 6.0 | 9.0 | 0.00 | 0.00 | 0.00 | 31 | 1007.8 |
| 20260509175912 | 74 | 304 | 8.0 | 13.0 | 0.00 | 0.00 | 0.00 | 31 | 1007.8 |
| 20260509175408 | 74 | 321 | 8.0 | 11.0 | 0.00 | 0.00 | 0.00 | 30 | 1007.9 |
| 20260509174905 | 74 | 348 | 11.0 | 13.0 | 0.00 | 0.00 | 0.00 | 30 | 1007.8 |
| 20260509174401 | 73 | 16 | 3.0 | 9.0 | 0.00 | 0.00 | 0.00 | 31 | 1007.6 |
| 20260509173857 | 73 | 3 | 7.0 | 13.0 | 0.00 | 0.00 | 0.00 | 32 | 1007.6 |
| 20260509173352 | 73 | 28 | 2.0 | 11.0 | 0.00 | 0.00 | 0.00 | 31 | 1007.8 |
| 20260509172849 | 73 | 333 | 5.0 | 10.0 | 0.00 | 0.00 | 0.00 | 32 | 1007.9 |
| 20260509172346 | 74 | 353 | 5.0 | 11.0 | 0.00 | 0.00 | 0.00 | 31 | 1007.9 |
| 20260509171841 | 73 | 296 | 2.0 | 7.0 | 0.00 | 0.00 | 0.00 | 34 | 1007.7 |
| 20260509171337 | 73 | 302 | 3.0 | 3.0 | 0.00 | 0.00 | 0.00 | 31 | 1007.8 |
| 20260509170833 | 73 | 31 | 4.0 | 6.0 | 0.00 | 0.00 | 0.00 | 33 | 1008.0 |
| 20260509170329 | 72 | 269 | 3.0 | 6.0 | 0.00 | 0.00 | 0.00 | 32 | 1007.9 |
| 20260509165824 | 71 | 312 | 2.0 | 7.0 | 0.00 | 0.00 | 0.00 | 34 | 1008.0 |
| 20260509165319 | 72 | 333 | 4.0 | 7.0 | 0.00 | 0.00 | 0.00 | 33 | 1008.2 |
| 20260509164815 | 71 | 32 | 5.0 | 11.0 | 0.00 | 0.00 | 0.00 | 34 | 1008.2 |
| 20260509164312 | 71 | 345 | 6.0 | 10.0 | 0.00 | 0.00 | 0.00 | 31 | 1008.4 |
| 20260509163808 | 72 | 324 | 5.0 | 6.0 | 0.00 | 0.00 | 0.00 | 32 | 1008.3 |
| 20260509163304 | 71 | 13 | 8.0 | 14.0 | 0.00 | 0.00 | 0.00 | 33 | 1008.3 |
| 20260509162803 | 71 | 259 | 9.0 | 14.0 | 0.00 | 0.00 | 0.00 | 32 | 1008.3 |
| 20260509162256 | 70 | 315 | 3.0 | 8.0 | 0.00 | 0.00 | 0.00 | 33 | 1008.3 |
| 20260509161753 | 70 | 45 | 7.0 | 15.0 | 0.00 | 0.00 | 0.00 | 33 | 1008.1 |
| 20260509161249 | 70 | 338 | 4.0 | 13.0 | 0.00 | 0.00 | 0.00 | 35 | 1008.0 |
| 20260509160744 | 69 | 332 | 8.0 | 14.0 | 0.00 | 0.00 | 0.00 | 33 | 1008.0 |
| 20260509160241 | 69 | 26 | 8.0 | 16.0 | 0.00 | 0.00 | 0.00 | 34 | 1008.2 |
| 20260509155736 | 69 | 316 | 8.0 | 16.0 | 0.00 | 0.00 | 0.00 | 34 | 1008.1 |
| 20260509155228 | 69 | 313 | 7.0 | 16.0 | 0.00 | 0.00 | 0.00 | 35 | 1008.0 |
| 20260509154724 | 69 | 326 | 5.0 | 15.0 | 0.00 | 0.00 | 0.00 | 34 | 1008.1 |
| 20260509154221 | 69 | 295 | 7.0 | 9.0 | 0.00 | 0.00 | 0.00 | 34 | 1008.0 |
| 20260509153718 | 68 | 330 | 9.0 | 15.0 | 0.00 | 0.00 | 0.00 | 37 | 1008.1 |
| 20260509153214 | 69 | 330 | 6.0 | 13.0 | 0.00 | 0.00 | 0.00 | 38 | 1008.0 |
| 20260509152710 | 69 | 20 | 6.0 | 13.0 | 0.00 | 0.00 | 0.00 | 40 | 1007.9 |
| 20260509152207 | 69 | 20 | 12.0 | 22.0 | 0.00 | 0.00 | 0.00 | 39 | 1007.9 |
| 20260509151704 | 69 | 314 | 10.0 | 20.0 | 0.00 | 0.00 | 0.00 | 40 | 1007.6 |
| 20260509151201 | 71 | 350 | 11.0 | 16.0 | 0.00 | 0.00 | 0.00 | 38 | 1007.5 |
| 20260509150658 | 72 | 305 | 5.0 | 8.0 | 0.00 | 0.00 | 0.00 | 35 | 1007.4 |
| 20260509150157 | 71 | 341 | 12.0 | 15.0 | 0.00 | 0.00 | 0.00 | 33 | 1006.9 |
| 20260509145652 | 71 | 264 | 8.0 | 10.0 | 0.00 | 0.00 | 0.00 | 35 | 1006.7 |
| 20260509145148 | 71 | 236 | 3.0 | 8.0 | 0.00 | 0.00 | 0.00 | 34 | 1006.7 |
| 20260509144644 | 70 | 311 | 2.0 | 7.0 | 0.00 | 0.00 | 0.00 | 41 | 1006.6 |
| 20260509144141 | 69 | 280 | 0.0 | 3.0 | 0.00 | 0.00 | 0.00 | 42 | 1006.7 |
| 20260509143639 | 68 | 258 | 2.0 | 6.0 | 0.00 | 0.00 | 0.00 | 41 | 1006.9 |
| 20260509143136 | 68 | 262 | 3.0 | 7.0 | 0.00 | 0.00 | 0.00 | 42 | 1007.1 |
| 20260509142631 | 68 | 258 | 4.0 | 6.0 | 0.00 | 0.00 | 0.00 | 41 | 1007.0 |
| 20260509142128 | 68 | 281 | 1.0 | 3.0 | 0.00 | 0.00 | 0.00 | 42 | 1006.9 |
| 20260509141624 | 68 | 289 | 1.0 | 3.0 | 0.00 | 0.00 | 0.00 | 44 | 1006.9 |
| 20260509141120 | 67 | 227 | 1.0 | 7.0 | 0.00 | 0.00 | 0.00 | 44 | 1007.1 |
| 20260509140617 | 66 | 246 | 3.0 | 6.0 | 0.00 | 0.00 | 0.00 | 44 | 1007.1 |
| 20260509140115 | 65 | 278 | 2.0 | 5.0 | 0.00 | 0.00 | 0.00 | 49 | 1006.9 |
| 20260509135612 | 64 | 260 | 3.0 | 6.0 | 0.00 | 0.00 | 0.00 | 52 | 1007.0 |
| 20260509135111 | 63 | 273 | 1.0 | 5.0 | 0.00 | 0.00 | 0.00 | 56 | 1007.0 |
| 20260509134607 | 62 | 243 | 1.0 | 3.0 | 0.00 | 0.00 | 0.00 | 65 | 1006.8 |
| 20260509134104 | 60 | 223 | 2.0 | 3.0 | 0.00 | 0.00 | 0.00 | 67 | 1006.7 |
| 20260509133601 | 59 | 226 | 3.0 | 3.0 | 0.00 | 0.00 | 0.00 | 68 | 1006.8 |
| 20260509133059 | 59 | 234 | 1.0 | 3.0 | 0.00 | 0.00 | 0.00 | 68 | 1006.6 |
| 20260509132557 | 58 | 268 | 1.0 | 3.0 | 0.00 | 0.00 | 0.00 | 69 | 1006.7 |
| 20260509132055 | 58 | 202 | 4.0 | 5.0 | 0.00 | 0.00 | 0.00 | 69 | 1006.7 |
| 20260509131551 | 57 | 210 | 4.0 | 6.0 | 0.00 | 0.00 | 0.00 | 69 | 1006.7 |
| 20260509131048 | 57 | 218 | 4.0 | 5.0 | 0.00 | 0.00 | 0.00 | 70 | 1006.8 |
| 20260509130543 | 57 | 224 | 4.0 | 5.0 | 0.00 | 0.00 | 0.00 | 70 | 1006.8 |
| 20260509130041 | 56 | 210 | 3.0 | 3.0 | 0.00 | 0.00 | 0.00 | 69 | 1006.9 |
| 20260509125537 | 55 | 266 | 1.0 | 2.0 | 0.00 | 0.00 | 0.00 | 71 | 1006.8 |
| 20260509125033 | 55 | 256 | 1.0 | 3.0 | 0.00 | 0.00 | 0.00 | 71 | 1006.7 |
| 20260509124530 | 54 | 259 | 2.0 | 2.0 | 0.00 | 0.00 | 0.00 | 73 | 1006.6 |
| 20260509124027 | 53 | 249 | 1.0 | 2.0 | 0.00 | 0.00 | 0.00 | 75 | 1006.6 |
| 20260509123525 | 53 | 302 | 0.0 | 2.0 | 0.00 | 0.00 | 0.00 | 76 | 1006.9 |
| 20260509123016 | 52 | 269 | 0.0 | 1.0 | 0.00 | 0.00 | 0.00 | 77 | 1006.8 |
| 20260509122513 | 51 | 236 | 1.0 | 3.0 | 0.00 | 0.00 | 0.00 | 78 | 1006.8 |
| 20260509122009 | 52 | 231 | 2.0 | 2.0 | 0.00 | 0.00 | 0.00 | 80 | 1006.3 |
| 20260509121506 | 52 | 224 | 2.0 | 2.0 | 0.00 | 0.00 | 0.00 | 73 | 1006.3 |
| 20260509121004 | 52 | 243 | 1.0 | 2.0 | 0.00 | 0.00 | 0.00 | 75 | 1006.2 |
| 20260509120502 | 51 | 252 | 2.0 | 2.0 | 0.00 | 0.00 | 0.00 | 76 | 1006.2 |
| 20260509120000 | 51 | 259 | 1.0 | 2.0 | 0.00 | 0.00 | 0.00 | 77 | 1006.3 |
| 20260509115456 | 51 | 243 | 2.0 | 3.0 | 0.00 | 0.00 | 0.00 | 78 | 1006.2 |
| 20260509114954 | 50 | 249 | 3.0 | 5.0 | 0.00 | 0.00 | 0.00 | 78 | 1006.1 |
| 20260509114452 | 50 | 251 | 2.0 | 3.0 | 0.00 | 0.00 | 0.00 | 78 | 1006.0 |
| 20260509113951 | 50 | 280 | 1.0 | 1.0 | 0.00 | 0.00 | 0.00 | 80 | 1005.8 |
| 20260509113448 | 49 | 281 | 0.0 | 1.0 | 0.00 | 0.00 | 0.00 | 81 | 1005.8 |
| 20260509112945 | 49 | 275 | 0.0 | 0.0 | 0.00 | 0.00 | 0.00 | 83 | 1005.8 |
| 20260509112443 | 49 | 275 | 0.0 | 1.0 | 0.00 | 0.00 | 0.00 | 84 | 1005.8 |
| 20260509111939 | 49 | 274 | 1.0 | 2.0 | 0.00 | 0.00 | 0.00 | 84 | 1005.9 |
| 20260509111437 | 49 | 286 | 1.0 | 2.0 | 0.00 | 0.00 | 0.00 | 84 | 1006.0 |
| 20260509110934 | 49 | 299 | 2.0 | 3.0 | 0.00 | 0.00 | 0.00 | 85 | 1005.9 |
| 20260509110429 | 49 | 292 | 2.0 | 2.0 | 0.00 | 0.00 | 0.00 | 85 | 1005.9 |
| 20260509105928 | 49 | 270 | 1.0 | 2.0 | 0.00 | 0.00 | 0.00 | 86 | 1005.6 |
| 20260509105426 | 49 | 292 | 3.0 | 3.0 | 0.00 | 0.00 | 0.00 | 87 | 1005.8 |
| 20260509104923 | 49 | 298 | 2.0 | 6.0 | 0.00 | 0.00 | 0.00 | 87 | 1005.9 |
| 20260509104420 | 49 | 290 | 3.0 | 5.0 | 0.00 | 0.00 | 0.00 | 86 | 1005.7 |
| 20260509103917 | 49 | 293 | 3.0 | 3.0 | 0.00 | 0.00 | 0.00 | 86 | 1005.9 |
| 20260509103414 | 49 | 293 | 2.0 | 3.0 | 0.00 | 0.00 | 0.00 | 86 | 1005.7 |
| 20260509102913 | 49 | 301 | 1.0 | 2.0 | 0.00 | 0.00 | 0.00 | 87 | 1005.6 |
| 20260509102410 | 50 | 233 | 2.0 | 3.0 | 0.00 | 0.00 | 0.00 | 86 | 1005.2 |
| 20260509101905 | 50 | 275 | 1.0 | 2.0 | 0.00 | 0.00 | 0.00 | 85 | 1005.2 |
| 20260509101401 | 50 | 277 | 0.0 | 1.0 | 0.00 | 0.00 | 0.00 | 85 | 1005.3 |
| 20260509100900 | 50 | 277 | 0.0 | 0.0 | 0.00 | 0.00 | 0.00 | 85 | 1005.4 |
| 20260509100356 | 50 | 277 | 0.0 | 1.0 | 0.00 | 0.00 | 0.00 | 85 | 1005.4 |
| 20260509095853 | 51 | 277 | 0.0 | 1.0 | 0.00 | 0.00 | 0.00 | 85 | 1005.5 |
| 20260509095351 | 51 | 278 | 1.0 | 2.0 | 0.00 | 0.00 | 0.00 | 85 | 1005.7 |
| 20260509094847 | 51 | 276 | 0.0 | 1.0 | 0.00 | 0.00 | 0.00 | 86 | 1005.5 |
| 20260509094344 | 51 | 275 | 0.0 | 1.0 | 0.00 | 0.00 | 0.00 | 85 | 1005.5 |
| 20260509093842 | 51 | 275 | 1.0 | 1.0 | 0.00 | 0.00 | 0.00 | 85 | 1005.8 |
| 20260509093338 | 51 | 280 | 0.0 | 0.0 | 0.00 | 0.00 | 0.00 | 85 | 1005.4 |
| 20260509092837 | 51 | 281 | 0.0 | 1.0 | 0.00 | 0.00 | 0.00 | 85 | 1005.5 |
| 20260509092335 | 51 | 285 | 0.0 | 2.0 | 0.00 | 0.00 | 0.00 | 86 | 1005.4 |
| 20260509091832 | 52 | 284 | 1.0 | 2.0 | 0.00 | 0.00 | 0.00 | 85 | 1005.4 |
| 20260509091329 | 52 | 292 | 1.0 | 1.0 | 0.00 | 0.00 | 0.00 | 86 | 1005.3 |
| 20260509090826 | 52 | 286 | 0.0 | 1.0 | 0.00 | 0.00 | 0.00 | 86 | 1005.4 |
| 20260509090324 | 52 | 290 | 1.0 | 2.0 | 0.00 | 0.00 | 0.00 | 85 | 1005.4 |
| 20260509085821 | 52 | 281 | 1.0 | 3.0 | 0.00 | 0.00 | 0.00 | 85 | 1005.5 |
| 20260509085318 | 52 | 296 | 1.0 | 3.0 | 0.00 | 0.00 | 0.00 | 85 | 1005.3 |
| 20260509084814 | 53 | 291 | 2.0 | 5.0 | 0.00 | 0.00 | 0.00 | 85 | 1005.5 |
| 20260509084311 | 53 | 275 | 2.0 | 5.0 | 0.00 | 0.00 | 0.00 | 84 | 1005.5 |
| 20260509083809 | 53 | 303 | 1.0 | 3.0 | 0.00 | 0.00 | 0.00 | 85 | 1005.5 |
| 20260509083306 | 53 | 297 | 2.0 | 3.0 | 0.00 | 0.00 | 0.00 | 84 | 1005.4 |
| 20260509082803 | 54 | 335 | 0.0 | 2.0 | 0.00 | 0.00 | 0.00 | 83 | 1005.3 |
| 20260509082259 | 53 | 264 | 2.0 | 2.0 | 0.00 | 0.00 | 0.00 | 83 | 1005.3 |
| 20260509081756 | 53 | 284 | 4.0 | 5.0 | 0.00 | 0.00 | 0.00 | 84 | 1005.3 |
| 20260509081253 | 53 | 296 | 1.0 | 2.0 | 0.00 | 0.00 | 0.00 | 84 | 1005.4 |
| 20260509080752 | 54 | 281 | 0.0 | 2.0 | 0.00 | 0.00 | 0.00 | 83 | 1005.4 |
| 20260509080249 | 54 | 302 | 1.0 | 2.0 | 0.00 | 0.00 | 0.00 | 83 | 1005.4 |
| 20260509075747 | 54 | 271 | 1.0 | 2.0 | 0.00 | 0.00 | 0.00 | 83 | 1005.4 |
| 20260509075244 | 53 | 283 | 1.0 | 2.0 | 0.00 | 0.00 | 0.00 | 84 | 1005.3 |
| 20260509074741 | 53 | 275 | 0.0 | 2.0 | 0.00 | 0.00 | 0.00 | 84 | 1005.3 |
| 20260509074239 | 54 | 284 | 0.0 | 1.0 | 0.00 | 0.00 | 0.00 | 84 | 1005.4 |
| 20260509073735 | 54 | 280 | 0.0 | 2.0 | 0.00 | 0.00 | 0.00 | 84 | 1005.3 |
| 20260509073231 | 54 | 231 | 1.0 | 2.0 | 0.00 | 0.00 | 0.00 | 84 | 1005.4 |
| 20260509072728 | 53 | 245 | 2.0 | 2.0 | 0.00 | 0.00 | 0.00 | 84 | 1005.5 |
| 20260509072225 | 54 | 237 | 1.0 | 3.0 | 0.00 | 0.00 | 0.00 | 84 | 1005.5 |
| 20260509071721 | 55 | 228 | 2.0 | 3.0 | 0.00 | 0.00 | 0.00 | 82 | 1005.4 |
| 20260509071219 | 55 | 212 | 3.0 | 3.0 | 0.00 | 0.00 | 0.00 | 82 | 1005.6 |
| 20260509070715 | 55 | 244 | 2.0 | 3.0 | 0.00 | 0.00 | 0.00 | 82 | 1005.7 |
| 20260509070212 | 55 | 261 | 1.0 | 5.0 | 0.00 | 0.00 | 0.00 | 81 | 1005.6 |
| 20260509065708 | 56 | 270 | 1.0 | 3.0 | 0.00 | 0.00 | 0.00 | 81 | 1005.8 |
| 20260509065204 | 56 | 239 | 3.0 | 5.0 | 0.00 | 0.00 | 0.00 | 80 | 1005.8 |
| 20260509064701 | 56 | 243 | 1.0 | 6.0 | 0.00 | 0.00 | 0.00 | 80 | 1005.7 |
| 20260509064159 | 56 | 244 | 3.0 | 5.0 | 0.00 | 0.00 | 0.00 | 81 | 1005.7 |
| 20260509063656 | 56 | 289 | 1.0 | 3.0 | 0.00 | 0.00 | 0.00 | 81 | 1005.9 |
| 20260509063152 | 55 | 254 | 3.0 | 3.0 | 0.00 | 0.00 | 0.00 | 82 | 1006.0 |
| 20260509062649 | 56 | 238 | 2.0 | 3.0 | 0.00 | 0.00 | 0.00 | 82 | 1005.8 |
| 20260509062146 | 55 | 223 | 3.0 | 5.0 | 0.00 | 0.00 | 0.00 | 84 | 1005.9 |
| 20260509061643 | 55 | 270 | 1.0 | 3.0 | 0.00 | 0.00 | 0.00 | 84 | 1005.8 |
| 20260509061141 | 55 | 295 | 1.0 | 3.0 | 0.00 | 0.00 | 0.00 | 84 | 1005.9 |
| 20260509060638 | 55 | 223 | 2.0 | 3.0 | 0.00 | 0.00 | 0.00 | 85 | 1005.6 |
| 20260509060134 | 54 | 264 | 2.0 | 2.0 | 0.00 | 0.00 | 0.00 | 86 | 1005.7 |
| 20260509055630 | 54 | 226 | 3.0 | 5.0 | 0.00 | 0.00 | 0.00 | 86 | 1005.6 |
| 20260509055126 | 55 | 237 | 2.0 | 2.0 | 0.00 | 0.00 | 0.00 | 86 | 1005.5 |
| 20260509054623 | 55 | 250 | 1.0 | 2.0 | 0.00 | 0.00 | 0.00 | 86 | 1005.6 |
| 20260509054120 | 55 | 272 | 1.0 | 2.0 | 0.00 | 0.00 | 0.00 | 86 | 1005.5 |
| 20260509053619 | 55 | 226 | 2.0 | 3.0 | 0.00 | 0.00 | 0.00 | 86 | 1005.6 |
| 20260509053115 | 55 | 233 | 2.0 | 3.0 | 0.00 | 0.00 | 0.00 | 86 | 1005.5 |
| 20260509052613 | 55 | 225 | 3.0 | 5.0 | 0.00 | 0.00 | 0.00 | 85 | 1005.4 |
| 20260509052111 | 56 | 215 | 4.0 | 5.0 | 0.00 | 0.00 | 0.00 | 85 | 1005.5 |
| 20260509051608 | 56 | 225 | 3.0 | 3.0 | 0.00 | 0.00 | 0.00 | 84 | 1005.7 |
| 20260509051105 | 56 | 216 | 3.0 | 5.0 | 0.00 | 0.00 | 0.00 | 84 | 1005.4 |
| 20260509050602 | 56 | 260 | 3.0 | 5.0 | 0.00 | 0.00 | 0.00 | 84 | 1005.7 |
| 20260509050058 | 57 | 237 | 3.0 | 5.0 | 0.00 | 0.00 | 0.00 | 83 | 1005.7 |
| 20260509045556 | 57 | 214 | 3.0 | 6.0 | 0.00 | 0.00 | 0.00 | 83 | 1005.7 |
| 20260509045053 | 57 | 220 | 5.0 | 6.0 | 0.00 | 0.00 | 0.00 | 82 | 1005.7 |
| 20260509044550 | 58 | 219 | 4.0 | 7.0 | 0.00 | 0.00 | 0.00 | 81 | 1005.7 |
| 20260509044047 | 58 | 209 | 4.0 | 7.0 | 0.00 | 0.00 | 0.00 | 81 | 1005.6 |
| 20260509043544 | 58 | 188 | 5.0 | 8.0 | 0.00 | 0.00 | 0.00 | 80 | 1005.5 |
| 20260509043039 | 58 | 199 | 5.0 | 8.0 | 0.00 | 0.00 | 0.00 | 80 | 1005.5 |
| 20260509042536 | 59 | 212 | 5.0 | 7.0 | 0.00 | 0.00 | 0.00 | 79 | 1005.5 |
| 20260509042032 | 59 | 209 | 5.0 | 7.0 | 0.00 | 0.00 | 0.00 | 79 | 1005.6 |
| 20260509041529 | 59 | 212 | 4.0 | 9.0 | 0.00 | 0.00 | 0.00 | 79 | 1005.6 |
| 20260509041027 | 59 | 214 | 5.0 | 8.0 | 0.00 | 0.00 | 0.00 | 78 | 1005.8 |
| 20260509040525 | 59 | 220 | 6.0 | 9.0 | 0.00 | 0.00 | 0.00 | 78 | 1005.8 |
| 20260509040022 | 59 | 218 | 5.0 | 8.0 | 0.00 | 0.00 | 0.00 | 78 | 1005.7 |
| 20260509035518 | 60 | 206 | 5.0 | 7.0 | 0.00 | 0.00 | 0.00 | 77 | 1005.9 |
| 20260509035014 | 60 | 209 | 6.0 | 8.0 | 0.00 | 0.00 | 0.00 | 77 | 1005.7 |
| 20260509034513 | 60 | 223 | 5.0 | 7.0 | 0.00 | 0.00 | 0.00 | 76 | 1005.9 |
| 20260509034009 | 60 | 228 | 4.0 | 8.0 | 0.00 | 0.00 | 0.00 | 76 | 1005.8 |
| 20260509033506 | 60 | 215 | 6.0 | 7.0 | 0.00 | 0.00 | 0.00 | 75 | 1005.7 |
| 20260509033003 | 61 | 229 | 5.0 | 9.0 | 0.00 | 0.00 | 0.00 | 75 | 1005.9 |
| 20260509032500 | 61 | 218 | 6.0 | 8.0 | 0.00 | 0.00 | 0.00 | 74 | 1005.9 |
| 20260509031958 | 61 | 219 | 7.0 | 8.0 | 0.00 | 0.00 | 0.00 | 73 | 1005.9 |
| 20260509031455 | 62 | 215 | 7.0 | 8.0 | 0.00 | 0.00 | 0.00 | 72 | 1005.8 |
| 20260509030952 | 62 | 211 | 7.0 | 9.0 | 0.00 | 0.00 | 0.00 | 72 | 1005.9 |
| 20260509030450 | 63 | 197 | 5.0 | 8.0 | 0.00 | 0.00 | 0.00 | 70 | 1005.8 |
| 20260509025947 | 63 | 201 | 5.0 | 7.0 | 0.00 | 0.00 | 0.00 | 71 | 1006.0 |
| 20260509025442 | 63 | 248 | 1.0 | 3.0 | 0.00 | 0.00 | 0.00 | 70 | 1006.3 |
| 20260509024938 | 63 | 210 | 5.0 | 7.0 | 0.00 | 0.00 | 0.00 | 70 | 1005.9 |
| 20260509024434 | 63 | 207 | 5.0 | 8.0 | 0.00 | 0.00 | 0.00 | 69 | 1006.1 |
| 20260509023931 | 63 | 224 | 7.0 | 9.0 | 0.00 | 0.00 | 0.00 | 68 | 1005.7 |
| 20260509023428 | 64 | 237 | 7.0 | 10.0 | 0.00 | 0.00 | 0.00 | 67 | 1005.6 |
| 20260509022925 | 64 | 233 | 5.0 | 8.0 | 0.00 | 0.00 | 0.00 | 66 | 1005.6 |
| 20260509022422 | 64 | 222 | 8.0 | 13.0 | 0.00 | 0.00 | 0.00 | 65 | 1005.3 |
| 20260509021920 | 64 | 210 | 6.0 | 8.0 | 0.00 | 0.00 | 0.00 | 66 | 1005.5 |
| 20260509021416 | 65 | 215 | 8.0 | 10.0 | 0.00 | 0.00 | 0.00 | 65 | 1005.3 |
| 20260509020914 | 65 | 217 | 9.0 | 13.0 | 0.00 | 0.00 | 0.00 | 64 | 1005.1 |
| 20260509020412 | 65 | 214 | 5.0 | 8.0 | 0.00 | 0.00 | 0.00 | 61 | 1004.9 |
| 20260509015909 | 65 | 232 | 9.0 | 13.0 | 0.00 | 0.00 | 0.00 | 61 | 1005.2 |
| 20260509015408 | 66 | 233 | 4.0 | 7.0 | 0.00 | 0.00 | 0.00 | 58 | 1005.2 |
| 20260509014903 | 66 | 240 | 5.0 | 11.0 | 0.00 | 0.00 | 0.00 | 57 | 1005.4 |
| 20260509014400 | 66 | 240 | 7.0 | 10.0 | 0.00 | 0.00 | 0.00 | 55 | 1006.0 |
| 20260509013857 | 66 | 217 | 4.0 | 6.0 | 0.00 | 0.00 | 0.00 | 54 | 1005.7 |
| 20260509013354 | 66 | 232 | 3.0 | 6.0 | 0.00 | 0.00 | 0.00 | 53 | 1005.4 |
| 20260509012849 | 67 | 247 | 4.0 | 6.0 | 0.00 | 0.00 | 0.00 | 52 | 1005.2 |
| 20260509012346 | 67 | 225 | 4.0 | 6.0 | 0.00 | 0.00 | 0.00 | 51 | 1004.9 |
| 20260509011844 | 67 | 225 | 3.0 | 5.0 | 0.00 | 0.00 | 0.00 | 52 | 1004.7 |
| 20260509011341 | 67 | 272 | 1.0 | 1.0 | 0.00 | 0.00 | 0.00 | 53 | 1004.7 |